• In Latvia
  • List of Countries
  • For 7 days
  • Water Temperature
  • Satellite Maps
  • Weather Map
  • Weather Widgets
  • user-avatar
    Login

    Hourly Weather Beruni

    Today, 15 August, Wednesday

    Time Temperature Precipitation Wind Pressure Humidity
    00:00 +32°C° 0 mm 2 mps 748 mmHg 13%
    01:00 +32°C° 0 mm 2 mps 748 mmHg 14%
    02:00 +31°C° 0 mm 2 mps 748 mmHg 14%
    03:00 +30°C° 0 mm 1 mps 748 mmHg 14%
    04:00 +30°C° 0 mm 1 mps 748 mmHg 14%
    05:00 +31°C° 0 mm 1 mps 748 mmHg 14%
    06:00 +32°C° 0 mm 1 mps 748 mmHg 13%
    07:00 +33°C° 0 mm 1 mps 749 mmHg 13%
    08:00 +35°C° 0 mm 2 mps 749 mmHg 13%
    09:00 +37°C° 0 mm 2 mps 749 mmHg 12%
    10:00 +38°C° 0 mm 2 mps 749 mmHg 12%
    11:00 +39°C° 0 mm 2 mps 749 mmHg 12%
    12:00 +40°C° 0 mm 3 mps 749 mmHg 13%
    13:00 +40°C° 0 mm 3 mps 748 mmHg 13%
    14:00 +40°C° 0 mm 3 mps 748 mmHg 13%
    15:00 +42°C° 0 mm 4 mps 748 mmHg 13%
    16:00 +42°C° 0 mm 4 mps 748 mmHg 14%
    17:00 +41°C° 0 mm 4 mps 748 mmHg 14%
    18:00 +40°C° 0 mm 4 mps 748 mmHg 15%
    19:00 +38°C° 0 mm 4 mps 748 mmHg 15%
    20:00 +36°C° 0 mm 5 mps 748 mmHg 17%
    21:00 +35°C° 0 mm 5 mps 748 mmHg 19%
    22:00 +34°C° 0 mm 6 mps 749 mmHg 20%
    23:00 +33°C° 0 mm 6 mps 749 mmHg 23%

    Tomorrow, 16 August, Thursday

    Time Temperature Precipitation Wind Pressure Humidity
    00:00 +33°C° 0 mm 6 mps 749 mmHg 25%
    01:00 +32°C° 0 mm 6 mps 749 mmHg 28%
    02:00 +30°C° 0 mm 5 mps 749 mmHg 30%
    03:00 +30°C° 0 mm 5 mps 749 mmHg 31%
    04:00 +29°C° 0 mm 4 mps 749 mmHg 33%
    05:00 +30°C° 0 mm 5 mps 749 mmHg 32%
    06:00 +30°C° 0 mm 5 mps 750 mmHg 31%
    07:00 +32°C° 0 mm 6 mps 750 mmHg 30%
    08:00 +33°C° 0 mm 5 mps 750 mmHg 27%
    09:00 +35°C° 0 mm 5 mps 750 mmHg 24%
    10:00 +37°C° 0 mm 5 mps 750 mmHg 20%
    11:00 +39°C° 0 mm 5 mps 750 mmHg 19%
    12:00 +39°C° 0 mm 5 mps 750 mmHg 17%
    13:00 +40°C° 0 mm 5 mps 750 mmHg 15%
    14:00 +41°C° 0 mm 5 mps 749 mmHg 15%
    15:00 +41°C° 0 mm 6 mps 749 mmHg 14%
    16:00 +41°C° 0 mm 6 mps 749 mmHg 14%
    17:00 +40°C° 0 mm 6 mps 749 mmHg 15%
    18:00 +39°C° 0 mm 6 mps 749 mmHg 16%
    19:00 +36°C° 0 mm 6 mps 749 mmHg 17%
    20:00 +35°C° 0 mm 7 mps 749 mmHg 18%
    21:00 +34°C° 0 mm 8 mps 750 mmHg 19%
    22:00 +33°C° 0 mm 8 mps 750 mmHg 20%
    23:00 +32°C° 0 mm 8 mps 750 mmHg 21%

    Day after tomorrow, 17 August, Friday

    Time Temperature Precipitation Wind Pressure Humidity
    00:00 +30°C° 0 mm 7 mps 750 mmHg 22%
    01:00 +30°C° 0 mm 6 mps 749 mmHg 23%
    02:00 +29°C° 0 mm 6 mps 749 mmHg 23%
    03:00 +29°C° 0 mm 5 mps 749 mmHg 22%
    04:00 +28°C° 0 mm 5 mps 749 mmHg 22%
    05:00 +29°C° 0 mm 5 mps 749 mmHg 20%
    06:00 +29°C° 0 mm 5 mps 750 mmHg 19%
    07:00 +30°C° 0 mm 6 mps 750 mmHg 18%
    08:00 +32°C° 0 mm 6 mps 750 mmHg 17%
    09:00 +34°C° 0 mm 6 mps 750 mmHg 15%
    10:00 +36°C° 0 mm 5 mps 750 mmHg 14%
    11:00 +36°C° 0 mm 5 mps 750 mmHg 12%
    12:00 +37°C° 0 mm 5 mps 749 mmHg 11%
    13:00 +39°C° 0 mm 5 mps 748 mmHg 9%
    14:00 +39°C° 0 mm 5 mps 748 mmHg 9%
    15:00 +39°C° 0 mm 5 mps 748 mmHg 8%
    16:00 +39°C° 0 mm 6 mps 747 mmHg 8%
    17:00 +37°C° 0 mm 5 mps 747 mmHg 9%
    18:00 +36°C° 0 mm 5 mps 747 mmHg 11%
    19:00 +34°C° 0 mm 5 mps 747 mmHg 13%
    20:00 +33°C° 0 mm 5 mps 747 mmHg 14%
    21:00 +32°C° 0 mm 5 mps 747 mmHg 16%
    22:00 +30°C° 0 mm 5 mps 747 mmHg 18%
    23:00 +30°C° 0 mm 5 mps 747 mmHg 19%

    18 August, Saturday

    Time Temperature Precipitation Wind Pressure Humidity
    00:00 +29°C° 0 mm 5 mps 747 mmHg 20%
    01:00 +28°C° 0 mm 4 mps 747 mmHg 21%
    02:00 +27°C° 0 mm 4 mps 747 mmHg 22%
    03:00 +27°C° 0 mm 4 mps 747 mmHg 23%
    04:00 +26°C° 0 mm 4 mps 746 mmHg 24%
    05:00 +27°C° 0 mm 4 mps 747 mmHg 23%
    06:00 +28°C° 0 mm 4 mps 747 mmHg 22%
    07:00 +28°C° 0 mm 4 mps 747 mmHg 20%
    08:00 +30°C° 0 mm 4 mps 747 mmHg 19%
    09:00 +33°C° 0 mm 4 mps 747 mmHg 17%
    10:00 +34°C° 0 mm 4 mps 747 mmHg 15%
    11:00 +35°C° 0 mm 4 mps 747 mmHg 14%
    12:00 +36°C° 0 mm 4 mps 746 mmHg 13%
    13:00 +37°C° 0 mm 4 mps 746 mmHg 12%
    14:00 +37°C° 0 mm 4 mps 746 mmHg 12%
    15:00 +39°C° 0 mm 5 mps 745 mmHg 11%
    16:00 +39°C° 0 mm 5 mps 745 mmHg 11%
    17:00 +37°C° 0 mm 5 mps 745 mmHg 12%
    18:00 +35°C° 0 mm 4 mps 745 mmHg 13%
    19:00 +34°C° 0 mm 4 mps 745 mmHg 14%
    20:00 +33°C° 0 mm 4 mps 745 mmHg 15%
    21:00 +32°C° 0 mm 4 mps 745 mmHg 17%
    22:00 +30°C° 0 mm 5 mps 746 mmHg 18%
    23:00 +29°C° 0 mm 4 mps 745 mmHg 21%

    19 August, Sunday

    Time Temperature Precipitation Wind Pressure Humidity
    00:00 +28°C° 0 mm 4 mps 745 mmHg 23%
    01:00 +27°C° 0 mm 4 mps 745 mmHg 26%
    02:00 +27°C° 0 mm 3 mps 745 mmHg 27%
    03:00 +26°C° 0 mm 3 mps 745 mmHg 29%
    04:00 +26°C° 0 mm 3 mps 745 mmHg 30%
    05:00 +26°C° 0 mm 3 mps 745 mmHg 29%
    06:00 +27°C° 0 mm 3 mps 746 mmHg 28%
    07:00 +28°C° 0 mm 2 mps 746 mmHg 27%
    08:00 +30°C° 0 mm 2 mps 746 mmHg 24%
    09:00 +32°C° 0 mm 2 mps 746 mmHg 21%
    10:00 +34°C° 0 mm 2 mps 746 mmHg 18%
    11:00 +35°C° 0 mm 2 mps 746 mmHg 16%
    12:00 +36°C° 0 mm 2 mps 745 mmHg 15%
    13:00 +37°C° 0 mm 3 mps 745 mmHg 13%
    14:00 +37°C° 0 mm 3 mps 745 mmHg 13%
    15:00 +38°C° 0 mm 4 mps 745 mmHg 12%
    16:00 +38°C° 0 mm 4 mps 745 mmHg 12%
    17:00 +37°C° 0 mm 4 mps 745 mmHg 13%
    18:00 +35°C° 0 mm 4 mps 745 mmHg 15%
    19:00 +34°C° 0 mm 4 mps 745 mmHg 16%
    20:00 +34°C° 0 mm 4 mps 745 mmHg 17%
    21:00 +33°C° 0 mm 3 mps 745 mmHg 19%
    22:00 +31°C° 0 mm 3 mps 745 mmHg 21%
    23:00 +30°C° 0 mm 3 mps 745 mmHg 23%

    20 August, Monday

    Time Temperature Precipitation Wind Pressure Humidity
    00:00 +29°C° 0 mm 2 mps 745 mmHg 25%
    01:00 +29°C° 0 mm 2 mps 745 mmHg 27%
    02:00 +28°C° 0 mm 2 mps 745 mmHg 28%
    03:00 +28°C° 0 mm 2 mps 745 mmHg 28%
    04:00 +28°C° 0 mm 2 mps 745 mmHg 29%
    05:00 +29°C° 0 mm 2 mps 746 mmHg 28%
    06:00 +29°C° 0 mm 2 mps 746 mmHg 27%
    07:00 +30°C° 0 mm 3 mps 747 mmHg 26%
    08:00 +31°C° 0 mm 3 mps 747 mmHg 24%
    09:00 +33°C° 0 mm 3 mps 747 mmHg 22%
    10:00 +35°C° 0 mm 3 mps 747 mmHg 20%
    11:00 +36°C° 0 mm 4 mps 747 mmHg 19%
    12:00 +37°C° 0 mm 5 mps 747 mmHg 18%
    13:00 +39°C° 0 mm 6 mps 746 mmHg 17%
    14:00 +39°C° 0 mm 7 mps 746 mmHg 17%
    15:00 +38°C° 0 mm 7 mps 746 mmHg 17%
    16:00 +38°C° 0 mm 8 mps 746 mmHg 17%
    17:00 +36°C° 0 mm 7 mps 746 mmHg 17%
    18:00 +34°C° 0 mm 7 mps 747 mmHg 17%
    19:00 +33°C° 0 mm 7 mps 747 mmHg 17%
    20:00 +30°C° 0 mm 7 mps 748 mmHg 23%
    21:00 +29°C° 0 mm 7 mps 748 mmHg 28%
    22:00 +27°C° 0 mm 6 mps 748 mmHg 34%
    23:00 +26°C° 0 mm 6 mps 749 mmHg 37%
    Show more